Covington, KY

9:26 PM EST on December 15, 2019 (GMT -0500)
Cincinnati-Northern KY International

Weather History for KCVG - October, 2019

Change the Weather History Date:

Wednesday, October 16, 2019

  Actual Average Record
Temperature  
Mean Temperature 54 °F 56 °F  
Max Temperature 62 °F 66 °F 85 °F (1947)
Min Temperature 45 °F 45 °F 30 °F (1995)
Degree Days  
Heating Degree Days 12 10  
Month to date heating degree days 76 123  
Since 1 July heating degree days 76 181  
Cooling Degree Days 0 0  
Month to date cooling degree days 54 16  
Year to date cooling degree days 1496 1121  
Growing Degree Days 4 (Base 50)    
Moisture  
Dew Point 44 °F    
Average Humidity 77    
Maximum Humidity 90    
Minimum Humidity 61    
Precipitation  
Precipitation 0.42 in 0.10 in 1.31 in (1989)
Month to date precipitation 1.11 1.69  
Year to date precipitation 43.53 34.11  
Snow  
Snow 0.00 in 0.00 in 0.00 in ()
Month to date snowfall 0.0 0.1  
Since 1 July snowfall 0.0 0.1  
Since 1 September snowfall 0.0 0.1  
Snow Depth 0.00 in    
Sea Level Pressure  
Sea Level Pressure 29.83 in    
Wind  
Wind Speed 12 mph ()    
Max Wind Speed 28 mph    
Max Gust Speed 36 mph    
Visibility 8.8 miles    
Events Rain    
T = Trace of Precipitation, MM = Missing Value Source: Averaged Metar Reports

Daily Weather History Graph

Daily Weather History Graph

Search for Another Location

Airport or City:

Astronomy

Oct. 16, 2019 Rise Set
Actual Time 7:48 AM EDT 6:58 PM EDT
Civil Twilight 7:22 AM EDT 7:25 PM EDT
Nautical Twilight 6:51 AM EDT 7:56 PM EDT
Astronomical Twilight 6:20 AM EDT 8:27 PM EDT
Moon 8:52 PM EDT 10:17 AM EDT
Length of Visible Light 12h 03m
Length of Day
11h 09m
Waning Gibbous, 93% of the Moon is Illuminated
Oct 16
Waning Gibbous
Oct 21
Last Quarter
Oct 27
New
Nov 4
First Quarter
Nov 12
Full

Hourly Weather History & Observations

Time (EDT) Temp. Windchill Dew Point Humidity Pressure Visibility Wind Dir Wind Speed Gust Speed Precip Events Conditions
12:52 AM 62.1 °F - 59.0 °F 90% 29.75 in 10.0 mi WSW 5.8 mph - 0.04 in   Overcast
1:52 AM 62.1 °F - 59.0 °F 90% 29.73 in 4.0 mi South 11.5 mph - 0.08 in Rain Rain
2:27 AM 62.1 °F - 59.0 °F 90% 29.75 in 10.0 mi South 10.4 mph - 0.02 in   Overcast
2:52 AM 62.1 °F - 59.0 °F 90% 29.71 in 10.0 mi South 9.2 mph - 0.02 in Rain Light Rain
3:05 AM 62.1 °F - 59.0 °F 90% 29.73 in 9.0 mi SSW 8.1 mph - 0.00 in   Overcast
3:33 AM 62.1 °F - 59.0 °F 90% 29.72 in 8.0 mi SSW 6.9 mph - 0.00 in Rain Light Rain
3:46 AM 55.4 °F - 51.8 °F 88% 29.74 in 10.0 mi NW 23.0 mph 35.7 mph 0.00 in Rain Light Rain
3:52 AM 53.1 °F - 50.0 °F 89% 29.73 in 7.0 mi NW 23.0 mph 35.7 mph 0.00 in Rain Light Rain
4:06 AM 52.0 °F - 46.9 °F 83% 29.76 in 6.0 mi NW 21.9 mph - 0.01 in Rain Light Rain
4:19 AM 51.1 °F - 46.9 °F 86% 29.76 in 2.5 mi NW 20.7 mph 28.8 mph 0.05 in Rain Heavy Rain
4:28 AM 51.1 °F - 46.0 °F 83% 29.76 in 7.0 mi NW 20.7 mph 29.9 mph 0.12 in Rain Light Rain
4:52 AM 48.9 °F - 44.1 °F 83% 29.75 in 9.0 mi NW 20.7 mph 33.4 mph 0.14 in Rain Light Rain
5:39 AM 48.0 °F - 44.1 °F 86% 29.77 in 2.5 mi NW 12.7 mph - 0.06 in Rain Heavy Rain
5:46 AM 48.2 °F - 44.6 °F 87% 29.77 in 3.0 mi NW 13.8 mph 21.9 mph 0.10 in Rain Heavy Rain
5:52 AM 48.0 °F - 44.1 °F 86% 29.75 in 8.0 mi NW 11.5 mph 21.9 mph 0.11 in Rain Light Rain
6:52 AM 48.0 °F - 43.0 °F 83% 29.76 in 10.0 mi WNW 11.5 mph - 0.03 in   Overcast
7:52 AM 46.9 °F - 41.0 °F 80% 29.78 in 10.0 mi WNW 13.8 mph - N/A   Mostly Cloudy
8:41 AM 46.0 °F 41.4 °F 39.9 °F 79% 29.81 in 10.0 mi WNW 9.2 mph - N/A   Mostly Cloudy
8:52 AM 46.0 °F 40.2 °F 39.0 °F 76% 29.80 in 10.0 mi WNW 12.7 mph 23.0 mph N/A   Mostly Cloudy
9:52 AM 46.0 °F 39.0 °F 39.0 °F 76% 29.84 in 10.0 mi WNW 17.3 mph - N/A   Overcast
10:52 AM 46.0 °F 38.3 °F 37.0 °F 71% 29.85 in 10.0 mi WNW 20.7 mph 31.1 mph N/A   Overcast
11:52 AM 46.9 °F - 36.0 °F 66% 29.88 in 10.0 mi WNW 20.7 mph - N/A   Overcast
12:52 PM 48.0 °F - 37.0 °F 66% 29.89 in 10.0 mi WNW 16.1 mph - N/A   Overcast
12:59 PM 48.0 °F - 37.0 °F 66% 29.89 in 10.0 mi WNW 16.1 mph 23.0 mph N/A   Overcast
1:39 PM 48.0 °F - 37.0 °F 66% 29.89 in 10.0 mi WNW 16.1 mph - N/A   Overcast
1:52 PM 48.9 °F - 37.0 °F 64% 29.88 in 10.0 mi WNW 13.8 mph - N/A   Overcast
2:52 PM 48.9 °F - 37.0 °F 64% 29.88 in 10.0 mi WNW 13.8 mph - N/A   Overcast
3:52 PM 48.0 °F - 37.9 °F 68% 29.89 in 10.0 mi West 12.7 mph - N/A   Overcast
4:52 PM 48.9 °F - 39.0 °F 69% 29.90 in 10.0 mi West 12.7 mph - N/A   Overcast
5:52 PM 50.0 °F - 37.0 °F 61% 29.92 in 10.0 mi West 13.8 mph 25.3 mph N/A   Overcast
6:52 PM 50.0 °F - 37.0 °F 61% 29.94 in 10.0 mi WNW 13.8 mph - N/A   Overcast
7:52 PM 50.0 °F - 37.0 °F 61% 29.95 in 10.0 mi West 15.0 mph - N/A   Overcast
8:52 PM 48.9 °F - 37.0 °F 64% 29.97 in 10.0 mi West 11.5 mph 23.0 mph N/A   Overcast
9:52 PM 48.0 °F - 37.0 °F 66% 29.98 in 10.0 mi West 16.1 mph - N/A   Mostly Cloudy
10:52 PM 46.9 °F - 36.0 °F 66% 29.99 in 10.0 mi West 11.5 mph - N/A   Overcast
11:52 PM 45.0 °F 38.9 °F 36.0 °F 71% 29.99 in 10.0 mi West 12.7 mph - N/A   Mostly Cloudy